Skip Page Navigation
NASA JPL Caltech
NASA Logo - Jet Propulsion Laboratory + View the NASA Portal
+ Near-Earth Object (NEO) Program
Search JPL
JPL Home Earth Solar System Stars & Galaxies Technology
JPL Solar System Dynamics
BODIES ORBITS EPHEMERIDES TOOLS PHYSICAL DATA DISCOVERY FAQ SITE MAP
JPL Small-Body Database Browser
Search: [ help ]  
30445 Stirling (2000 NJ2)
Classification: Main-belt Asteroid          SPK-ID: 2030445
Ephemeris | Orbit Diagram | Orbital Elements | Physical Parameters | Discovery Circumstances ]

[ show orbit diagram ]
Orbital Elements at Epoch 2457000.5 (2014-Dec-09.0) TDB
Reference: JPL 6 (heliocentric ecliptic J2000)
 Element Value Uncertainty (1-sigma)   Units 
e .1507416333732659 8.2027e-08  
a 2.697299684989398 4.1608e-08 AU
q 2.2907043247769 2.399e-07 AU
i 12.04928915906452 8.3745e-06 deg
node 287.4854049457101 3.6718e-05 deg
peri 287.071529067725 5.3578e-05 deg
M 155.9014475738373 4.6822e-05 deg
tp 2456299.787481644341
(2013-Jan-07.28748164)
0.00020348 JED
period 1618.051086334941
4.43
3.744e-05
1.025e-07
d
yr
n .2224898849241149 5.1482e-09 deg/d
Q 3.103895045201895 4.7881e-08 AU
  Orbit Determination Parameters
   # obs. used (total)      573  
   data-arc span      6567 days (17.98 yr)  
   first obs. used      1996-10-07  
   last obs. used      2014-09-30  
   planetary ephem.      DE431  
   SB-pert. ephem.      SB431-BIG16  
   condition code      0  
   fit RMS      .54865  
   data source      ORB  
   producer      Otto Matic  
   solution date      2014-Oct-09 15:02:56  

Additional Information
 Earth MOID = 1.31876 AU 
 T_jup = 3.321 
[ show covariance matrix ]

Ephemeris | Orbit Diagram | Orbital Elements | Physical Parameters | Discovery Circumstances ]

Physical Parameter Table
Parameter Symbol Value Units Sigma Reference Notes
absolute magnitude H 13.9 mag n/a MPO231624  

30445 Stirling           Discovered 2000 July 5 by P. G. Comba at Prescott.
James Stirling (1692-1770) was a Scottish mathematician best known for his derivation of an asymptotic formula for factorials.
NOTE: some special characters may not display properly (any characters within {} are an attempt to place the proper accent above a character)
Reference: 20020328/MPCPages.arcLast Updated: 2003-10-02

Alternate Designations
 2000 NJ2 = 1999 CH115 
Ephemeris | Orbit Diagram | Orbital Elements | Physical Parameters | Discovery Circumstances ]
ABOUT SSD CREDITS/AWARDS PRIVACY/COPYRIGHT GLOSSARY LINKS
FirstGov 2014-Oct-21 13:29 UT
(server date/time)  
NASA Home Page
Site Manager:   Donald K. Yeomans
Webmaster  Alan B. Chamberlin